TimeCST,TemperatureF,Dew PointF,Humidity,Sea Level PressureIn,VisibilityMPH,Wind Direction,Wind SpeedMPH,Gust SpeedMPH,PrecipitationIn,Events,Conditions,WindDirDegrees,DateUTC
12:15 AM,21.2,8.6,58,30.23,10.0,East,8.1,-,N/A,,Overcast,100,2013-12-08 06:15:00
12:35 AM,21.2,8.6,58,30.22,10.0,East,10.4,-,N/A,,Overcast,100,2013-12-08 06:35:00
12:55 AM,21.2,8.6,58,30.20,10.0,East,10.4,-,N/A,,Overcast,100,2013-12-08 06:55:00
1:15 AM,21.2,8.6,58,30.20,10.0,East,6.9,-,N/A,,Overcast,80,2013-12-08 07:15:00
1:35 AM,21.2,8.6,58,30.18,10.0,East,10.4,-,N/A,,Overcast,80,2013-12-08 07:35:00
1:55 AM,23.0,10.4,59,30.16,10.0,East,10.4,-,N/A,,Overcast,100,2013-12-08 07:55:00
2:15 AM,23.0,10.4,59,30.17,10.0,ESE,10.4,-,N/A,,Overcast,110,2013-12-08 08:15:00
2:35 AM,23.0,10.4,59,30.14,10.0,ESE,10.4,-,N/A,,Overcast,110,2013-12-08 08:35:00
2:55 AM,21.2,12.2,68,30.15,10.0,ESE,8.1,-,N/A,,Overcast,120,2013-12-08 08:55:00
3:15 AM,21.2,12.2,68,30.14,10.0,ESE,11.5,-,N/A,,Overcast,110,2013-12-08 09:15:00
3:35 AM,21.2,14.0,74,30.13,10.0,ESE,5.8,-,N/A,,Overcast,110,2013-12-08 09:35:00
3:55 AM,21.2,14.0,74,30.13,8.0,East,6.9,-,N/A,,Overcast,100,2013-12-08 09:55:00
4:15 AM,21.2,17.6,86,30.13,2.5,SE,8.1,-,N/A,,Overcast,130,2013-12-08 10:15:00
4:35 AM,21.2,17.6,86,30.13,3.0,Calm,Calm,-,N/A,,Overcast,0,2013-12-08 10:35:00
4:55 AM,21.2,17.6,86,30.13,2.5,East,4.6,-,N/A,,Overcast,90,2013-12-08 10:55:00
5:15 AM,21.2,17.6,86,30.12,1.8,ESE,4.6,-,N/A,,Overcast,120,2013-12-08 11:15:00
5:35 AM,21.2,17.6,86,30.11,2.5,SE,4.6,-,N/A,,Overcast,140,2013-12-08 11:35:00
5:55 AM,21.2,17.6,86,30.12,3.0,Calm,Calm,-,N/A,,Overcast,0,2013-12-08 11:55:00
6:15 AM,21.2,17.6,86,30.11,3.0,SE,3.5,-,N/A,,Overcast,140,2013-12-08 12:15:00
6:35 AM,21.2,19.4,93,30.11,3.0,SSE,3.5,-,N/A,,Overcast,150,2013-12-08 12:35:00
6:55 AM,21.2,19.4,93,30.10,4.0,SE,4.6,-,N/A,,Overcast,140,2013-12-08 12:55:00
7:15 AM,21.2,19.4,93,30.10,3.0,SSE,4.6,-,N/A,,Overcast,150,2013-12-08 13:15:00
7:35 AM,21.2,19.4,93,30.09,2.0,Calm,Calm,-,N/A,,Overcast,0,2013-12-08 13:35:00
7:55 AM,23.0,19.4,86,30.10,2.0,Calm,Calm,-,N/A,,Overcast,0,2013-12-08 13:55:00
8:15 AM,23.0,19.4,86,30.10,1.8,Calm,Calm,-,N/A,,Overcast,0,2013-12-08 14:15:00
8:35 AM,23.0,19.4,86,30.11,1.2,South,3.5,-,N/A,,Overcast,190,2013-12-08 14:35:00
8:55 AM,23.0,19.4,86,30.10,1.5,Calm,Calm,-,N/A,,Overcast,0,2013-12-08 14:55:00
9:15 AM,24.8,21.2,86,30.11,1.8,South,4.6,-,N/A,,Overcast,190,2013-12-08 15:15:00
9:35 AM,24.8,21.2,86,30.11,2.5,South,3.5,-,N/A,,Overcast,190,2013-12-08 15:35:00
9:55 AM,24.8,21.2,86,30.10,2.5,South,5.8,-,N/A,,Overcast,190,2013-12-08 15:55:00
10:15 AM,24.8,21.2,86,30.09,4.0,South,5.8,-,N/A,,Overcast,180,2013-12-08 16:15:00
10:35 AM,24.8,21.2,86,30.08,4.0,SSW,4.6,-,N/A,,Overcast,200,2013-12-08 16:35:00
10:55 AM,24.8,21.2,86,30.07,3.0,SSW,6.9,-,N/A,,Overcast,210,2013-12-08 16:55:00
11:15 AM,24.8,21.2,86,30.07,2.5,SSW,5.8,-,N/A,,Overcast,210,2013-12-08 17:15:00
11:35 AM,26.6,21.2,80,30.05,2.5,SSW,5.8,-,N/A,,Overcast,210,2013-12-08 17:35:00
11:55 AM,26.6,21.2,80,30.03,2.5,South,6.9,-,N/A,,Overcast,190,2013-12-08 17:55:00
12:15 PM,26.6,21.2,80,30.01,2.5,South,6.9,-,N/A,,Overcast,190,2013-12-08 18:15:00
12:35 PM,26.6,23.0,86,30.00,2.0,South,8.1,-,N/A,,Overcast,190,2013-12-08 18:35:00
12:55 PM,26.6,23.0,86,29.99,2.5,SSW,8.1,-,N/A,,Overcast,200,2013-12-08 18:55:00
1:15 PM,26.6,23.0,86,29.98,4.0,SSW,5.8,-,0.01,,Overcast,210,2013-12-08 19:15:00
1:35 PM,26.6,23.0,86,29.98,6.0,SW,6.9,-,0.01,,Overcast,220,2013-12-08 19:35:00
1:55 PM,28.4,23.0,80,29.98,5.0,SSW,8.1,-,0.01,,Overcast,210,2013-12-08 19:55:00
2:15 PM,28.4,23.0,80,29.98,5.0,SW,6.9,-,N/A,,Overcast,220,2013-12-08 20:15:00
2:35 PM,28.4,23.0,80,29.97,5.0,WSW,6.9,-,N/A,,Overcast,240,2013-12-08 20:35:00
2:55 PM,28.4,23.0,80,29.97,5.0,SW,6.9,-,0.01,,Overcast,220,2013-12-08 20:55:00
3:15 PM,28.4,24.8,86,29.98,8.0,WSW,6.9,-,N/A,,Overcast,250,2013-12-08 21:15:00
3:35 PM,28.4,23.0,80,29.98,5.0,SW,9.2,-,N/A,,Overcast,230,2013-12-08 21:35:00
3:55 PM,28.4,24.8,86,29.97,6.0,SSW,6.9,-,0.01,,Overcast,210,2013-12-08 21:55:00
4:15 PM,28.4,24.8,86,29.98,7.0,South,4.6,-,N/A,,Overcast,190,2013-12-08 22:15:00
4:35 PM,28.4,24.8,86,29.98,5.0,SSW,6.9,-,N/A,,Overcast,210,2013-12-08 22:35:00
4:55 PM,28.4,24.8,86,29.99,5.0,SSW,9.2,-,0.01,,Overcast,210,2013-12-08 22:55:00
5:15 PM,28.4,24.8,86,29.99,5.0,South,8.1,-,N/A,,Overcast,190,2013-12-08 23:15:00
5:35 PM,28.4,24.8,86,30.00,6.0,SSW,6.9,-,N/A,,Overcast,210,2013-12-08 23:35:00
5:55 PM,28.4,24.8,86,30.01,5.0,SW,4.6,-,0.01,,Overcast,220,2013-12-08 23:55:00
6:15 PM,28.4,24.8,86,30.02,3.0,WSW,5.8,-,N/A,,Overcast,240,2013-12-09 00:15:00
6:35 PM,28.4,24.8,86,30.03,3.0,WSW,6.9,-,N/A,,Overcast,240,2013-12-09 00:35:00
6:55 PM,28.4,24.8,86,30.05,4.0,WSW,8.1,-,N/A,,Overcast,240,2013-12-09 00:55:00
7:15 PM,28.4,24.8,86,30.05,3.0,WSW,6.9,-,0.01,,Overcast,250,2013-12-09 01:15:00
7:35 PM,28.4,24.8,86,30.06,3.0,WSW,5.8,-,0.01,,Overcast,240,2013-12-09 01:35:00
7:55 PM,28.4,24.8,86,30.07,3.0,WSW,6.9,-,0.01,,Overcast,240,2013-12-09 01:55:00
8:15 PM,28.4,24.8,86,30.07,2.5,WSW,5.8,-,N/A,,Overcast,240,2013-12-09 02:15:00
8:35 PM,28.4,24.8,86,30.08,2.5,WSW,4.6,-,N/A,,Overcast,250,2013-12-09 02:35:00
8:55 PM,28.4,24.8,86,30.08,3.0,West,6.9,-,0.01,,Overcast,260,2013-12-09 02:55:00
9:15 PM,28.4,24.8,86,30.09,7.0,West,6.9,-,N/A,,Overcast,260,2013-12-09 03:15:00
9:35 PM,28.4,24.8,86,30.09,5.0,West,11.5,-,N/A,,Overcast,270,2013-12-09 03:35:00
9:55 PM,28.4,24.8,86,30.10,9.0,West,11.5,-,N/A,,Overcast,280,2013-12-09 03:55:00
10:15 PM,28.4,24.8,86,30.11,6.0,West,6.9,-,N/A,,Overcast,280,2013-12-09 04:15:00
10:35 PM,28.4,24.8,86,30.11,5.0,West,10.4,-,N/A,,Overcast,280,2013-12-09 04:35:00
10:55 PM,28.4,24.8,86,30.12,6.0,WNW,8.1,-,N/A,,Overcast,290,2013-12-09 04:55:00
11:15 PM,28.4,23.0,80,30.13,8.0,WNW,12.7,16.1,N/A,,Overcast,300,2013-12-09 05:15:00
11:35 PM,28.4,23.0,80,30.13,9.0,WNW,9.2,-,N/A,,Overcast,300,2013-12-09 05:35:00
11:55 PM,28.4,21.2,74,30.14,10.0,WNW,9.2,-,N/A,,Overcast,300,2013-12-09 05:55:00